Location: Boiro
(42.6475°N, 8.8834°W)
Time: 02:51:05
(UTC+01:00)

Vanguard 1 Rocket - Pass Details

Date: 15 December 2021
Orbit: 651 x 4224 km, 34.3° (Epoch: 21 January)

Event Time Altitude Azimuth Distance (km) Brightness Sun altitude
Rises 06:06:01 0° 272° (W) 4,638 - -30.8°
Reaches altitude 10° 06:08:43 10° 265° (W) 4,004 - -30.3°
Exits shadow 06:14:40 34° 236° (SW) 3,196 9.7 -29.2°
Maximum altitude 06:19:11 43° 199° (SSW) 3,319 10.0 -28.4°
Drops below altitude 10° 06:37:45 10° 138° (SE) 6,884 12.5 -25.0°
Sets 06:44:22 0° 132° (SE) 8,239 13.2 -23.8°
